Time,TemperatureF,DewpointF,PressureIn,WindDirection,WindDirectionDegrees,WindSpeedMPH,WindSpeedGustMPH,Humidity,HourlyPrecipIn,Conditions,Clouds,dailyrainin,SoftwareType,DateUTC
2013-02-11 00:01:00,3.0,-1.0,-100.00,WNW,300,1.0,1.0,84,0.00,,,-99.99,,2013-02-11 05:01:00,
2013-02-11 00:12:00,2.0,-2.0,-100.00,West,275,1.0,2.0,83,0.00,,,-99.99,,2013-02-11 05:12:00,
2013-02-11 00:22:00,2.0,-1.0,-100.00,WSW,240,1.0,1.0,84,0.00,,,-99.99,,2013-02-11 05:22:00,
2013-02-11 00:32:00,2.0,-1.0,-100.00,West,265,0.0,1.0,83,0.00,,,-99.99,,2013-02-11 05:32:00,
2013-02-11 00:42:00,2.0,-2.0,-100.00,West,265,0.0,1.0,83,0.00,,,-99.99,,2013-02-11 05:42:00,
2013-02-11 00:52:00,2.0,-2.0,-100.00,East,90,0.0,1.0,82,0.00,,,-99.99,,2013-02-11 05:52:00,
2013-02-11 01:02:00,2.0,-2.0,-100.00,West,265,1.0,1.0,83,0.00,,,-99.99,,2013-02-11 06:02:00,
2013-02-11 01:11:00,0.0,-4.0,-100.00,ESE,115,1.0,2.0,81,0.00,,,-99.99,,2013-02-11 06:11:00,
2013-02-11 01:22:00,0.0,-4.0,-100.00,SE,140,1.0,1.0,82,0.00,,,-99.99,,2013-02-11 06:22:00,
2013-02-11 01:32:00,0.0,-4.0,-100.00,SW,235,0.0,1.0,82,0.00,,,-99.99,,2013-02-11 06:32:00,
2013-02-11 01:42:00,0.0,-3.0,-100.00,North,0,1.0,2.0,82,0.00,,,-99.99,,2013-02-11 06:42:00,
2013-02-11 01:51:00,0.0,-4.0,-100.00,West,270,1.0,2.0,82,0.00,,,-99.99,,2013-02-11 06:51:00,
2013-02-11 02:01:00,0.0,-4.0,-100.00,SE,130,1.0,1.0,82,0.00,,,-99.99,,2013-02-11 07:01:00,
2013-02-11 02:11:00,0.0,-4.0,-100.00,West,270,1.0,2.0,82,0.00,,,-99.99,,2013-02-11 07:11:00,
2013-02-11 02:21:00,0.0,-4.0,-100.00,SSW,205,0.0,1.0,82,0.00,,,-99.99,,2013-02-11 07:21:00,
2013-02-11 02:32:00,0.0,-4.0,-100.00,NNW,340,0.0,1.0,81,0.00,,,-99.99,,2013-02-11 07:32:00,
2013-02-11 02:42:00,0.0,-4.0,-100.00,North,5,0.0,1.0,81,0.00,,,-99.99,,2013-02-11 07:42:00,
2013-02-11 02:52:00,0.0,-4.0,-100.00,WNW,300,1.0,1.0,81,0.00,,,-99.99,,2013-02-11 07:52:00,
2013-02-11 03:01:00,0.0,-4.0,-100.00,NW,310,0.0,1.0,81,0.00,,,-99.99,,2013-02-11 08:01:00,
2013-02-11 03:11:00,0.0,-4.0,-100.00,NNW,340,1.0,1.0,81,0.00,,,-99.99,,2013-02-11 08:11:00,
2013-02-11 03:21:00,1.0,-3.0,-100.00,South,190,0.0,1.0,82,0.00,,,-99.99,,2013-02-11 08:21:00,
2013-02-11 03:32:00,0.0,-4.0,-100.00,SW,225,1.0,2.0,81,0.00,,,-99.99,,2013-02-11 08:32:00,
2013-02-11 03:42:00,0.0,-4.0,-100.00,West,280,1.0,2.0,81,0.00,,,-99.99,,2013-02-11 08:42:00,
2013-02-11 03:52:00,1.0,-3.0,-100.00,North,10,0.0,1.0,81,0.00,,,-99.99,,2013-02-11 08:52:00,
2013-02-11 04:02:00,1.0,-3.0,-100.00,SSE,160,0.0,1.0,81,0.00,,,-99.99,,2013-02-11 09:02:00,
2013-02-11 04:12:00,1.0,-4.0,-100.00,NE,55,0.0,1.0,80,0.00,,,-99.99,,2013-02-11 09:12:00,
2013-02-11 04:21:00,1.0,-3.0,-100.00,East,100,0.0,1.0,81,0.00,,,-99.99,,2013-02-11 09:21:00,
2013-02-11 04:32:00,2.0,-3.0,-100.00,West,260,0.0,1.0,81,0.00,,,-99.99,,2013-02-11 09:32:00,
2013-02-11 04:41:00,2.0,-2.0,-100.00,ESE,105,0.0,1.0,81,0.00,,,-99.99,,2013-02-11 09:41:00,
2013-02-11 04:51:00,3.0,-2.0,-100.00,ESE,110,0.0,1.0,81,0.00,,,-99.99,,2013-02-11 09:51:00,
2013-02-11 05:01:00,3.0,-2.0,-100.00,ESE,120,0.0,2.0,81,0.00,,,-99.99,,2013-02-11 10:01:00,
2013-02-11 05:11:00,3.0,-1.0,-100.00,North,355,0.0,1.0,81,0.00,,,-99.99,,2013-02-11 10:11:00,
2013-02-11 05:21:00,3.0,-1.0,-100.00,ESE,115,0.0,1.0,81,0.00,,,-99.99,,2013-02-11 10:21:00,
2013-02-11 05:32:00,4.0,0.0,-100.00,North,0,0.0,1.0,81,0.00,,,-99.99,,2013-02-11 10:32:00,
2013-02-11 05:42:00,4.0,0.0,-100.00,NNE,15,0.0,1.0,81,0.00,,,-99.99,,2013-02-11 10:42:00,
2013-02-11 05:52:00,4.0,0.0,-100.00,WSW,250,0.0,1.0,81,0.00,,,-99.99,,2013-02-11 10:52:00,
2013-02-11 06:02:00,5.0,1.0,-100.00,SSE,155,1.0,1.0,82,0.00,,,-99.99,,2013-02-11 11:02:00,
2013-02-11 06:11:00,5.0,1.0,-100.00,NNE,20,0.0,3.0,82,0.00,,,-99.99,,2013-02-11 11:11:00,
2013-02-11 06:22:00,6.0,2.0,-100.00,WSW,250,0.0,1.0,82,0.00,,,-99.99,,2013-02-11 11:22:00,
2013-02-11 06:32:00,6.0,2.0,-100.00,North,355,1.0,1.0,82,0.00,,,-99.99,,2013-02-11 11:32:00,
2013-02-11 06:42:00,6.0,2.0,-100.00,SSE,160,1.0,2.0,82,0.00,,,-99.99,,2013-02-11 11:42:00,
2013-02-11 06:52:00,7.0,2.0,-100.00,West,270,0.0,1.0,82,0.00,,,-99.99,,2013-02-11 11:52:00,
2013-02-11 07:03:00,7.0,3.0,-100.00,WSW,245,0.0,1.0,82,0.00,,,-99.99,,2013-02-11 12:03:00,
2013-02-11 07:12:00,8.0,4.0,-100.00,NNE,15,0.0,2.0,82,0.00,,,-99.99,,2013-02-11 12:12:00,
2013-02-11 07:22:00,9.0,4.0,-100.00,WSW,250,0.0,2.0,80,0.00,,,-99.99,,2013-02-11 12:22:00,
2013-02-11 07:32:00,9.0,4.0,-100.00,NE,55,1.0,3.0,79,0.00,,,-99.99,,2013-02-11 12:32:00,
2013-02-11 07:42:00,9.0,3.0,-100.00,SSE,150,2.0,4.0,77,0.00,,,-99.99,,2013-02-11 12:42:00,
2013-02-11 07:52:00,9.0,4.0,-100.00,North,10,1.0,3.0,77,0.00,,,-99.99,,2013-02-11 12:52:00,
2013-02-11 08:02:00,9.0,4.0,-100.00,WSW,240,0.0,2.0,77,0.00,,,-99.99,,2013-02-11 13:02:00,
2013-02-11 08:12:00,10.0,4.0,-100.00,WNW,300,2.0,2.0,77,0.00,,,-99.99,,2013-02-11 13:12:00,
2013-02-11 08:22:00,11.0,4.0,-100.00,South,170,1.0,1.0,74,0.00,,,-99.99,,2013-02-11 13:22:00,
2013-02-11 08:33:00,11.0,4.0,-100.00,ENE,60,0.0,2.0,72,0.00,,,-99.99,,2013-02-11 13:33:00,
2013-02-11 08:42:00,12.0,4.0,-100.00,NW,325,1.0,2.0,70,0.00,,,-99.99,,2013-02-11 13:42:00,
2013-02-11 08:52:00,13.0,5.0,-100.00,WNW,285,1.0,1.0,70,0.00,,,-99.99,,2013-02-11 13:52:00,
2013-02-11 09:02:00,13.0,5.0,-100.00,SSE,155,1.0,1.0,69,0.00,,,-99.99,,2013-02-11 14:02:00,
2013-02-11 09:11:00,14.0,6.0,-100.00,ESE,105,1.0,2.0,69,0.00,,,-99.99,,2013-02-11 14:11:00,
2013-02-11 09:22:00,14.0,6.0,-100.00,WSW,250,1.0,2.0,68,0.00,,,-99.99,,2013-02-11 14:22:00,
2013-02-11 09:33:00,15.0,6.0,-100.00,NE,50,0.0,2.0,65,0.00,,,-99.99,,2013-02-11 14:33:00,
2013-02-11 09:42:00,15.0,6.0,-100.00,NE,55,2.0,5.0,66,0.00,,,-99.99,,2013-02-11 14:42:00,
2013-02-11 09:52:00,15.0,6.0,-100.00,SE,140,2.0,4.0,67,0.00,,,-99.99,,2013-02-11 14:52:00,
2013-02-11 10:02:00,15.0,8.0,-100.00,NNE,15,1.0,2.0,72,0.47,,,-99.99,,2013-02-11 15:02:00,
2013-02-11 10:11:00,14.0,9.0,-100.00,North,10,1.0,3.0,79,0.47,,,-99.99,,2013-02-11 15:11:00,
2013-02-11 10:22:00,15.0,10.0,-100.00,North,5,2.0,4.0,83,0.64,,,-99.99,,2013-02-11 15:22:00,
2013-02-11 10:32:00,15.0,11.0,-100.00,East,85,1.0,3.0,85,1.18,,,-99.99,,2013-02-11 15:32:00,
2013-02-11 10:42:00,15.0,12.0,-100.00,NNW,330,1.0,4.0,87,0.24,,,-99.99,,2013-02-11 15:42:00,
2013-02-11 10:52:00,16.0,13.0,-100.00,NNW,340,1.0,3.0,87,2.47,,,-99.99,,2013-02-11 15:52:00,
2013-02-11 11:02:00,17.0,14.0,-100.00,NNW,335,2.0,4.0,87,0.07,,,-99.99,,2013-02-11 16:02:00,
2013-02-11 11:12:00,16.0,14.0,-100.00,NW,325,4.0,5.0,88,0.55,,,-99.99,,2013-02-11 16:12:00,
2013-02-11 11:22:00,17.0,14.0,-100.00,North,355,2.0,3.0,88,0.10,,,-99.99,,2013-02-11 16:22:00,
2013-02-11 11:32:00,18.0,15.0,-100.00,NW,325,1.0,4.0,88,0.00,,,-99.99,,2013-02-11 16:32:00,
2013-02-11 11:42:00,19.0,16.0,-100.00,WSW,250,1.0,3.0,88,0.00,,,-99.99,,2013-02-11 16:42:00,
2013-02-11 11:52:00,19.0,16.0,-100.00,SE,145,0.0,1.0,88,0.11,,,-99.99,,2013-02-11 16:52:00,
2013-02-11 12:02:00,19.0,16.0,-100.00,ESE,120,1.0,2.0,88,1.30,,,-99.99,,2013-02-11 17:02:00,
2013-02-11 12:11:00,20.0,17.0,-100.00,ENE,60,0.0,1.0,88,0.13,,,-99.99,,2013-02-11 17:11:00,
2013-02-11 12:22:00,20.0,17.0,-100.00,NNW,340,1.0,2.0,88,0.00,,,-99.99,,2013-02-11 17:22:00,
2013-02-11 12:32:00,20.0,17.0,-100.00,WNW,300,1.0,3.0,89,0.00,,,-99.99,,2013-02-11 17:32:00,
2013-02-11 12:42:00,20.0,18.0,-100.00,West,280,1.0,3.0,89,0.13,,,-99.99,,2013-02-11 17:42:00,
2013-02-11 12:52:00,21.0,18.0,-100.00,East,100,0.0,2.0,89,0.04,,,-99.99,,2013-02-11 17:52:00,
2013-02-11 13:02:00,20.0,18.0,-100.00,NE,55,1.0,2.0,89,0.00,,,-99.99,,2013-02-11 18:02:00,
2013-02-11 13:11:00,21.0,18.0,-100.00,South,185,1.0,1.0,89,0.00,,,-99.99,,2013-02-11 18:11:00,
2013-02-11 13:22:00,22.0,19.0,-100.00,WSW,245,0.0,2.0,89,0.00,,,-99.99,,2013-02-11 18:22:00,
2013-02-11 13:32:00,22.0,20.0,-100.00,South,185,2.0,4.0,89,0.00,,,-99.99,,2013-02-11 18:32:00,
2013-02-11 13:42:00,22.0,20.0,-100.00,East,95,2.0,3.0,90,0.01,,,-99.99,,2013-02-11 18:42:00,
2013-02-11 13:52:00,22.0,20.0,-100.00,East,90,1.0,2.0,90,0.00,,,-99.99,,2013-02-11 18:52:00,
2013-02-11 14:02:00,23.0,21.0,-100.00,North,10,1.0,2.0,91,0.00,,,-99.99,,2013-02-11 19:02:00,
2013-02-11 14:11:00,24.0,22.0,-100.00,ENE,75,1.0,4.0,91,0.00,,,-99.99,,2013-02-11 19:11:00,
2013-02-11 14:22:00,24.0,22.0,-100.00,NNE,15,1.0,2.0,91,0.00,,,-99.99,,2013-02-11 19:22:00,
2013-02-11 14:32:00,25.0,23.0,-100.00,SW,220,1.0,3.0,92,0.00,,,-99.99,,2013-02-11 19:32:00,
2013-02-11 14:42:00,27.0,25.0,-100.00,SW,230,0.0,2.0,92,0.00,,,-99.99,,2013-02-11 19:42:00,
2013-02-11 14:51:00,27.0,25.0,-100.00,NNE,30,1.0,3.0,91,0.00,,,-99.99,,2013-02-11 19:51:00,
2013-02-11 15:02:00,25.0,24.0,-100.00,NNE,15,1.0,4.0,92,0.00,,,-99.99,,2013-02-11 20:02:00,
2013-02-11 15:11:00,25.0,24.0,-100.00,ESE,115,0.0,2.0,92,0.00,,,-99.99,,2013-02-11 20:11:00,
2013-02-11 15:21:00,26.0,24.0,-100.00,SW,215,1.0,2.0,92,0.00,,,-99.99,,2013-02-11 20:21:00,
2013-02-11 15:32:00,26.0,24.0,-100.00,North,10,0.0,1.0,93,0.00,,,-99.99,,2013-02-11 20:32:00,
2013-02-11 15:42:00,26.0,24.0,-100.00,East,90,1.0,2.0,92,0.00,,,-99.99,,2013-02-11 20:42:00,
2013-02-11 15:52:00,27.0,25.0,-100.00,West,265,1.0,1.0,92,0.00,,,-99.99,,2013-02-11 20:52:00,
2013-02-11 16:02:00,27.0,25.0,-100.00,ESE,105,1.0,2.0,92,0.00,,,-99.99,,2013-02-11 21:02:00,
2013-02-11 16:12:00,27.0,25.0,-100.00,SE,130,0.0,2.0,92,0.00,,,-99.99,,2013-02-11 21:12:00,
2013-02-11 16:22:00,27.0,25.0,-100.00,North,355,1.0,2.0,93,0.00,,,-99.99,,2013-02-11 21:22:00,
2013-02-11 16:32:00,27.0,25.0,-100.00,WNW,300,1.0,4.0,93,0.00,,,-99.99,,2013-02-11 21:32:00,
2013-02-11 16:42:00,27.0,26.0,-100.00,West,265,1.0,1.0,93,0.00,,,-99.99,,2013-02-11 21:42:00,
2013-02-11 16:52:00,27.0,26.0,-100.00,West,280,0.0,1.0,93,0.00,,,-99.99,,2013-02-11 21:52:00,
2013-02-11 17:02:00,28.0,26.0,-100.00,South,180,0.0,1.0,93,0.00,,,-99.99,,2013-02-11 22:02:00,
2013-02-11 17:11:00,27.0,26.0,-100.00,SW,235,1.0,2.0,93,0.00,,,-99.99,,2013-02-11 22:11:00,
2013-02-11 17:22:00,27.0,26.0,-100.00,SSW,205,0.0,2.0,93,0.00,,,-99.99,,2013-02-11 22:22:00,
2013-02-11 17:32:00,27.0,26.0,-100.00,WNW,295,1.0,1.0,93,0.00,,,-99.99,,2013-02-11 22:32:00,
2013-02-11 17:42:00,27.0,26.0,-100.00,South,170,1.0,2.0,93,0.00,,,-99.99,,2013-02-11 22:42:00,
2013-02-11 17:52:00,27.0,26.0,-100.00,North,5,1.0,2.0,93,0.00,,,-99.99,,2013-02-11 22:52:00,
2013-02-11 18:02:00,27.0,26.0,-100.00,ESE,105,1.0,2.0,93,0.00,,,-99.99,,2013-02-11 23:02:00,
2013-02-11 18:11:00,27.0,26.0,-100.00,NNW,340,1.0,1.0,93,0.00,,,-99.99,,2013-02-11 23:11:00,
2013-02-11 18:22:00,27.0,26.0,-100.00,SSE,150,1.0,2.0,94,0.00,,,-99.99,,2013-02-11 23:22:00,
2013-02-11 18:32:00,27.0,26.0,-100.00,WSW,240,1.0,1.0,93,0.00,,,-99.99,,2013-02-11 23:32:00,
2013-02-11 18:42:00,27.0,26.0,-100.00,NNW,345,3.0,4.0,94,0.00,,,-99.99,,2013-02-11 23:42:00,
2013-02-11 18:52:00,28.0,26.0,-100.00,SSE,165,1.0,2.0,94,0.00,,,-99.99,,2013-02-11 23:52:00,
2013-02-11 19:02:00,27.0,26.0,-100.00,West,270,0.0,2.0,94,0.00,,,-99.99,,2013-02-12 00:02:00,
2013-02-11 19:12:00,27.0,26.0,-100.00,NW,325,1.0,2.0,94,0.00,,,-99.99,,2013-02-12 00:12:00,
2013-02-11 19:22:00,27.0,26.0,-100.00,SW,230,1.0,3.0,94,0.00,,,-99.99,,2013-02-12 00:22:00,
2013-02-11 19:32:00,28.0,26.0,-100.00,NNE,15,0.0,2.0,94,0.00,,,-99.99,,2013-02-12 00:32:00,
2013-02-11 19:42:00,28.0,26.0,-100.00,ENE,65,0.0,2.0,94,0.00,,,-99.99,,2013-02-12 00:42:00,
2013-02-11 19:52:00,28.0,26.0,-100.00,North,355,0.0,2.0,94,0.00,,,-99.99,,2013-02-12 00:52:00,
2013-02-11 20:02:00,28.0,26.0,-100.00,WNW,295,0.0,1.0,94,0.00,,,-99.99,,2013-02-12 01:02:00,
2013-02-11 20:11:00,28.0,26.0,-100.00,SE,125,0.0,2.0,94,0.00,,,-99.99,,2013-02-12 01:11:00,
2013-02-11 20:22:00,28.0,26.0,-100.00,West,270,0.0,2.0,94,0.00,,,-99.99,,2013-02-12 01:22:00,
2013-02-11 20:32:00,28.0,26.0,-100.00,WNW,300,1.0,2.0,94,0.00,,,-99.99,,2013-02-12 01:32:00,
2013-02-11 20:42:00,28.0,27.0,-100.00,SW,235,1.0,1.0,94,0.00,,,-99.99,,2013-02-12 01:42:00,
2013-02-11 20:52:00,28.0,27.0,-100.00,SW,235,0.0,1.0,94,0.00,,,-99.99,,2013-02-12 01:52:00,
2013-02-11 21:02:00,28.0,27.0,-100.00,ESE,105,1.0,1.0,94,0.00,,,-99.99,,2013-02-12 02:02:00,
2013-02-11 21:12:00,28.0,27.0,-100.00,SW,235,0.0,2.0,94,0.00,,,-99.99,,2013-02-12 02:12:00,
2013-02-11 21:22:00,28.0,27.0,-100.00,WNW,300,1.0,1.0,94,0.00,,,-99.99,,2013-02-12 02:22:00,
2013-02-11 21:32:00,28.0,27.0,-100.00,SSE,160,0.0,1.0,94,0.00,,,-99.99,,2013-02-12 02:32:00,
2013-02-11 21:42:00,28.0,27.0,-100.00,ESE,105,0.0,1.0,94,0.00,,,-99.99,,2013-02-12 02:42:00,
2013-02-11 21:52:00,29.0,27.0,-100.00,SE,125,0.0,1.0,94,0.03,,,-99.99,,2013-02-12 02:52:00,
2013-02-11 22:02:00,29.0,28.0,-100.00,WSW,240,0.0,1.0,94,0.00,,,-99.99,,2013-02-12 03:02:00,
2013-02-11 22:11:00,29.0,28.0,-100.00,SSE,150,1.0,2.0,94,0.03,,,-99.99,,2013-02-12 03:11:00,
2013-02-11 22:21:00,29.0,28.0,-100.00,NE,55,1.0,2.0,94,0.03,,,-99.99,,2013-02-12 03:21:00,
2013-02-11 22:32:00,29.0,28.0,-100.00,East,95,1.0,2.0,94,0.03,,,-99.99,,2013-02-12 03:32:00,
2013-02-11 22:42:00,30.0,28.0,-100.00,East,80,1.0,2.0,94,0.00,,,-99.99,,2013-02-12 03:42:00,
2013-02-11 22:51:00,30.0,29.0,-100.00,South,170,0.0,1.0,95,0.01,,,-99.99,,2013-02-12 03:51:00,
2013-02-11 23:01:00,30.0,29.0,-100.00,East,90,0.0,2.0,95,0.00,,,-99.99,,2013-02-12 04:01:00,
2013-02-11 23:11:00,30.0,29.0,-100.00,SSE,165,1.0,3.0,95,0.03,,,-99.99,,2013-02-12 04:11:00,
2013-02-11 23:21:00,32.0,30.0,-100.00,South,175,2.0,6.0,95,0.00,,,-99.99,,2013-02-12 04:21:00,
2013-02-11 23:32:00,32.0,31.0,-100.00,WSW,240,1.0,7.0,95,0.00,,,-99.99,,2013-02-12 04:32:00,
2013-02-11 23:42:00,32.0,31.0,-100.00,SSW,210,2.0,6.0,95,0.00,,,-99.99,,2013-02-12 04:42:00,
2013-02-11 23:51:00,32.0,31.0,-100.00,SW,230,1.0,4.0,95,0.00,,,-99.99,,2013-02-12 04:51:00,